Truth Or Consequences, NM

4:52 AM MDT on September 21, 2017 (GMT -0600)
Truth Or Consequences Municipal

Weather History for KTCS - June, 2014

Change the Weather History Date:

Tuesday, June 10, 2014

  Actual Average Record
Temperature  
Mean Temperature 77 °F -  
Max Temperature 94 °F 92 °F 101 °F (2013)
Min Temperature 60 °F 62 °F 52 °F (1998)
Cooling Degree Days 12    
Month to date cooling degree days 181  
Year to date cooling degree days 368  
Since 1 June cooling degree days 181  
Growing Degree Days 26 (Base 50)    
Moisture  
Dew Point 20 °F    
Average Humidity 17    
Maximum Humidity 28    
Minimum Humidity 6    
Precipitation  
Precipitation 0.00 in - 0.00 in (2017)
Month to date precipitation T  
Year to date precipitation 0.45  
Sea Level Pressure  
Sea Level Pressure 29.75 in    
Wind  
Wind Speed 7 mph (WSW)    
Max Wind Speed 16 mph    
Max Gust Speed 23 mph    
Visibility 10 miles    
Events      
T = Trace of Precipitation, MM = Missing Value Source: NWS Daily Summary

Daily Weather History Graph

Daily Weather History Graph

Search for Another Location

Airport or City:

Trip Planner

Search our weather history database for the weather conditions in past years. The results will help you decide how hot, cold, wet, or windy it might be!

Date:

Astronomy

Jun. 10, 2014 Rise Set
Actual Time 5:59 AM MDT 8:17 PM MDT
Civil Twilight 5:30 AM MDT 8:46 PM MDT
Nautical Twilight 4:55 AM MDT 9:21 PM MDT
Astronomical Twilight 4:17 AM MDT 10:00 PM MDT
Moon 5:52 PM MDT (6/10) 3:58 AM MDT (6/10)
Length of Visible Light 15h 16m
Length of Day
14h 18m
Waxing Gibbous, 92% of the Moon is Illuminated
Jun 10
Waxing Gibbous
Jun 12
Full
Jun 19
Last Quarter
Jun 27
New
Jul 5
First Quarter

Hourly Weather History & Observations

Time (MDT) Temp. Dew Point Humidity Pressure Visibility Wind Dir Wind Speed Gust Speed Precip Events Conditions
12:53 AM 71.1 °F 3.9 °F 7% 29.73 in 10.0 mi NW 10.4 mph - N/A   Clear
1:53 AM 64.9 °F 3.9 °F 9% 29.74 in 10.0 mi WNW 5.8 mph - N/A   Clear
2:53 AM 63.0 °F 5.0 °F 10% 29.75 in 10.0 mi North 4.6 mph - N/A   Clear
3:53 AM 66.0 °F 21.9 °F 19% 29.75 in 10.0 mi NNE 4.6 mph - N/A   Clear
4:53 AM 64.0 °F 30.0 °F 28% 29.78 in 10.0 mi North 3.5 mph - N/A   Clear
5:53 AM 61.0 °F 18.0 °F 19% 29.80 in 10.0 mi NW 8.1 mph - N/A   Clear
6:53 AM 62.1 °F 16.0 °F 17% 29.82 in 10.0 mi NNW 3.5 mph - N/A   Clear
7:53 AM 69.1 °F 30.0 °F 23% 29.81 in 10.0 mi NNE 9.2 mph - N/A   Clear
8:53 AM 73.4 °F 30.2 °F 20% 30.09 in 10.0 mi Calm Calm - N/A   Clear
9:53 AM 75.9 °F 30.0 °F 19% 29.83 in 10.0 mi Calm Calm - N/A   Clear
10:53 AM 80.1 °F 30.0 °F 16% 29.83 in 10.0 mi South 9.2 mph - N/A   Clear
11:53 AM 82.9 °F 28.9 °F 14% 29.81 in 10.0 mi SSE 5.8 mph - N/A   Clear
12:53 PM 87.1 °F 26.1 °F 11% 29.78 in 10.0 mi Calm Calm - N/A   Clear
1:53 PM 90.0 °F 19.9 °F 8% 29.76 in 10.0 mi North - - N/A   Clear
2:53 PM 91.9 °F 19.0 °F 7% 29.74 in 10.0 mi South 12.7 mph 18.4 mph N/A   Clear
3:53 PM 91.9 °F 15.1 °F 6% 29.70 in 10.0 mi SSW 10.4 mph - N/A   Clear
4:53 PM 93.0 °F 18.0 °F 6% 29.68 in 10.0 mi Calm Calm - N/A   Clear
5:53 PM 93.9 °F 23.0 °F 8% 29.66 in 10.0 mi South 13.8 mph 20.7 mph N/A   Clear
6:53 PM 93.0 °F 23.0 °F 8% 29.64 in 10.0 mi SSE 11.5 mph - N/A   Clear
7:53 PM 91.0 °F 21.9 °F 8% 29.62 in 10.0 mi South 12.7 mph 20.7 mph N/A   Clear
8:53 PM 87.1 °F 19.9 °F 8% 29.62 in 10.0 mi SSW 6.9 mph - N/A   Clear
9:53 PM 84.9 °F 17.1 °F 8% 29.65 in 10.0 mi WSW 9.2 mph - N/A   Clear
10:53 PM 78.1 °F 18.0 °F 10% 29.67 in 10.0 mi South 6.9 mph - N/A   Clear
11:53 PM 75.9 °F 17.1 °F 11% 29.67 in 10.0 mi NW 6.9 mph - N/A   Clear